User: anonymous   Login
Location: Unspecified
(0.0000°N, 0.0000°E)
Time: 03:18:10
(UTC+00:00)
Language:

ROBUSTA-3A - Orbit

View from above orbital plane
View from above orbital plane
View from above satellite
View from above satellite

Ground track
Ground track

The orbit is defined by the following mean orbital elements,

1 60243U          26145.37770005 +.00000000 +00000-0 +52454-3 0 00008
2 60243  61.9868 288.8853 0044515 123.6615 236.8738 15.11269169    08
Epoch (UTC): 25 May 2026 09:03:53
Eccentricity: 0.0044515
inclination: 61.9868°
perigee height: 502 km
apogee height: 563 km
right ascension of ascending node: 288.8853°
argument of perigee: 123.6615°
revolutions per day: 15.11269169
mean anomaly at epoch: 236.8738°

The dashed part of the orbit path shows where the satellite is in the earth's shadow,  

DLR